カタログに戻る

SL-8 DEB

運用中LEO
NORAD 27743·DEBRIS·🇷🇺 Russia

打ち上げ Feb 12, 1991 から Plesetsk Cosmodrome

Loading…

次のパス (今後24時間)

TLE

最新Source: Space-Track

元期: Sep 14, 2026, 00:35 UTC

1 27743U 91009CY  26257.02458693 -.00000068  00000-0 -50978-3 0  9999
2 27743  74.0604 110.0207 0134936 140.3818  10.9456 12.20341548265422

AllMySatでSL-8 DEBをリアルタイム追跡

Download on the App Store